Year,Month,Day,Hour,Minute,Value (Times are PST for temperature in C)
2007,07,13,00,00,17.40
2007,07,13,00,01,17.40
2007,07,13,00,02,17.40
2007,07,13,00,03,17.40
2007,07,13,00,04,17.40
2007,07,13,00,05,17.40
2007,07,13,00,06,17.40
2007,07,13,00,07,17.40
2007,07,13,00,08,17.50
2007,07,13,00,09,17.40
2007,07,13,00,10,17.50
2007,07,13,00,11,17.40
2007,07,13,00,12,17.40
2007,07,13,00,13,17.40
2007,07,13,00,14,17.40
2007,07,13,00,15,17.30
2007,07,13,00,16,17.30
2007,07,13,00,17,17.30
2007,07,13,00,18,17.20
2007,07,13,00,19,17.20
2007,07,13,00,20,17.20
2007,07,13,00,21,17.20
2007,07,13,00,22,17.10
2007,07,13,00,23,17.10
2007,07,13,00,24,17.10
2007,07,13,00,25,17.00
2007,07,13,00,26,17.00
2007,07,13,00,27,17.00
2007,07,13,00,28,16.90
2007,07,13,00,29,16.90
2007,07,13,00,30,16.90
2007,07,13,00,31,16.90
2007,07,13,00,32,16.90
2007,07,13,00,33,16.90
2007,07,13,00,34,16.90
2007,07,13,00,35,16.90
2007,07,13,00,36,16.80
2007,07,13,00,37,16.80
2007,07,13,00,38,16.80
2007,07,13,00,39,16.80
2007,07,13,00,40,16.80
2007,07,13,00,41,16.80
2007,07,13,00,42,16.80
2007,07,13,00,43,16.70
2007,07,13,00,44,16.70
2007,07,13,00,45,16.70
2007,07,13,00,46,16.70
2007,07,13,00,47,16.60
2007,07,13,00,48,16.60
2007,07,13,00,49,16.60
2007,07,13,00,50,16.60
2007,07,13,00,51,16.60
2007,07,13,00,52,16.60
2007,07,13,00,53,16.60
2007,07,13,00,54,16.60
2007,07,13,00,55,16.60
2007,07,13,00,56,16.60
2007,07,13,00,57,16.60
2007,07,13,00,58,16.60
2007,07,13,00,59,16.60
2007,07,13,01,00,16.60
2007,07,13,01,01,16.60
2007,07,13,01,02,16.60
2007,07,13,01,03,16.70
2007,07,13,01,04,16.70
2007,07,13,01,05,16.70
2007,07,13,01,06,16.70
2007,07,13,01,07,16.70
2007,07,13,01,08,16.70
2007,07,13,01,09,16.70
2007,07,13,01,10,16.70
2007,07,13,01,11,16.70
2007,07,13,01,12,16.70
2007,07,13,01,13,16.70
2007,07,13,01,14,16.80
2007,07,13,01,15,16.70
2007,07,13,01,16,16.80
2007,07,13,01,17,16.80
2007,07,13,01,18,16.80
2007,07,13,01,19,16.80
2007,07,13,01,20,16.80
2007,07,13,01,21,16.80
2007,07,13,01,22,16.80
2007,07,13,01,23,16.80
2007,07,13,01,24,16.70
2007,07,13,01,25,16.70
2007,07,13,01,26,16.70
2007,07,13,01,27,16.70
2007,07,13,01,28,16.70
2007,07,13,01,29,16.70
2007,07,13,01,30,16.70
2007,07,13,01,31,16.70
2007,07,13,01,32,16.60
2007,07,13,01,33,16.70
2007,07,13,01,34,16.70
2007,07,13,01,35,16.70
2007,07,13,01,36,16.70
2007,07,13,01,37,16.70
2007,07,13,01,38,16.70
2007,07,13,01,39,16.70
2007,07,13,01,40,16.70
2007,07,13,01,41,16.70
2007,07,13,01,42,16.60
2007,07,13,01,43,16.60
2007,07,13,01,44,16.50
2007,07,13,01,45,16.50
2007,07,13,01,46,16.40
2007,07,13,01,47,16.40
2007,07,13,01,48,16.30
2007,07,13,01,49,16.30
2007,07,13,01,50,16.20
2007,07,13,01,51,16.10
2007,07,13,01,52,16.00
2007,07,13,01,53,15.90
2007,07,13,01,54,15.90
2007,07,13,01,55,15.80
2007,07,13,01,56,15.80
2007,07,13,01,57,15.80
2007,07,13,01,58,15.80
2007,07,13,01,59,15.80
2007,07,13,02,00,15.80
2007,07,13,02,01,15.80
2007,07,13,02,02,15.90
2007,07,13,02,03,16.00
2007,07,13,02,04,16.10
2007,07,13,02,05,16.30
2007,07,13,02,06,16.40
2007,07,13,02,07,16.40
2007,07,13,02,08,16.60
2007,07,13,02,09,16.70
2007,07,13,02,10,16.80
2007,07,13,02,11,16.80
2007,07,13,02,12,16.80
2007,07,13,02,13,16.90
2007,07,13,02,14,16.90
2007,07,13,02,15,17.00
2007,07,13,02,16,17.00
2007,07,13,02,17,17.10
2007,07,13,02,18,17.10
2007,07,13,02,19,17.10
2007,07,13,02,20,17.10
2007,07,13,02,21,17.10
2007,07,13,02,22,17.10
2007,07,13,02,23,17.10
2007,07,13,02,24,17.10
2007,07,13,02,25,17.10
2007,07,13,02,26,17.10
2007,07,13,02,27,17.00
2007,07,13,02,28,17.00
2007,07,13,02,29,17.00
2007,07,13,02,30,17.00
2007,07,13,02,31,17.00
2007,07,13,02,32,16.90
2007,07,13,02,33,16.90
2007,07,13,02,34,16.90
2007,07,13,02,35,16.90
2007,07,13,02,36,16.80
2007,07,13,02,37,16.80
2007,07,13,02,38,16.70
2007,07,13,02,39,16.70
2007,07,13,02,40,16.70
2007,07,13,02,41,16.70
2007,07,13,02,42,16.70
2007,07,13,02,43,16.70
2007,07,13,02,44,16.30
2007,07,13,02,45,16.30
2007,07,13,02,46,16.30
2007,07,13,02,47,16.20
2007,07,13,02,48,16.10
2007,07,13,02,49,16.10
2007,07,13,02,50,16.10
2007,07,13,02,51,16.00
2007,07,13,02,52,16.00
2007,07,13,02,53,15.90
2007,07,13,02,54,15.90
2007,07,13,02,55,15.80
2007,07,13,02,56,15.80
2007,07,13,02,57,15.80
2007,07,13,02,58,15.80
2007,07,13,02,59,15.80
2007,07,13,03,00,15.80
2007,07,13,03,01,15.70
2007,07,13,03,02,15.60
2007,07,13,03,03,15.60
2007,07,13,03,04,15.50
2007,07,13,03,05,15.40
2007,07,13,03,06,15.40
2007,07,13,03,07,15.30
2007,07,13,03,08,15.20
2007,07,13,03,09,15.10
2007,07,13,03,10,15.00
2007,07,13,03,11,15.00
2007,07,13,03,12,15.00
2007,07,13,03,13,15.00
2007,07,13,03,14,14.90
2007,07,13,03,15,14.80
2007,07,13,03,16,14.80
2007,07,13,03,17,14.70
2007,07,13,03,18,14.70
2007,07,13,03,19,14.70
2007,07,13,03,20,14.60
2007,07,13,03,21,14.60
2007,07,13,03,22,14.60
2007,07,13,03,23,14.60
2007,07,13,03,24,14.60
2007,07,13,03,25,14.60
2007,07,13,03,26,14.60
2007,07,13,03,27,14.50
2007,07,13,03,28,14.50
2007,07,13,03,29,14.40
2007,07,13,03,30,14.40
2007,07,13,03,31,14.40
2007,07,13,03,32,14.30
2007,07,13,03,33,14.30
2007,07,13,03,34,14.30
2007,07,13,03,35,14.20
2007,07,13,03,36,14.20
2007,07,13,03,37,14.20
2007,07,13,03,38,14.20
2007,07,13,03,39,14.20
2007,07,13,03,40,14.20
2007,07,13,03,41,14.20
2007,07,13,03,42,14.20
2007,07,13,03,43,14.20
2007,07,13,03,44,14.20
2007,07,13,03,45,14.20
2007,07,13,03,46,14.20
2007,07,13,03,47,14.20
2007,07,13,03,48,14.20
2007,07,13,03,49,14.20
2007,07,13,03,50,14.20
2007,07,13,03,51,14.30
2007,07,13,03,52,14.30
2007,07,13,03,53,14.40
2007,07,13,03,54,14.50
2007,07,13,03,55,14.60
2007,07,13,03,56,14.80
2007,07,13,03,57,14.90
2007,07,13,03,58,15.00
2007,07,13,03,59,15.00
2007,07,13,04,00,15.00
2007,07,13,04,01,15.00
2007,07,13,04,02,15.00
2007,07,13,04,03,15.00
2007,07,13,04,04,15.00
2007,07,13,04,05,15.10
2007,07,13,04,06,15.10
2007,07,13,04,07,15.20
2007,07,13,04,08,15.20
2007,07,13,04,09,15.20
2007,07,13,04,10,15.20
2007,07,13,04,11,15.20
2007,07,13,04,12,15.20
2007,07,13,04,13,15.10
2007,07,13,04,14,15.00
2007,07,13,04,15,15.00
2007,07,13,04,16,14.80
2007,07,13,04,17,14.70
2007,07,13,04,18,14.50
2007,07,13,04,19,14.40
2007,07,13,04,20,14.30
2007,07,13,04,21,14.20
2007,07,13,04,22,14.20
2007,07,13,04,23,14.20
2007,07,13,04,24,14.10
2007,07,13,04,25,14.10
2007,07,13,04,26,14.10
2007,07,13,04,27,14.20
2007,07,13,04,28,14.20
2007,07,13,04,29,14.30
2007,07,13,04,30,14.30
2007,07,13,04,31,14.40
2007,07,13,04,32,14.40
2007,07,13,04,33,14.50
2007,07,13,04,34,14.50
2007,07,13,04,35,14.50
2007,07,13,04,36,14.50
2007,07,13,04,37,14.50
2007,07,13,04,38,14.50
2007,07,13,04,39,14.50
2007,07,13,04,40,14.50
2007,07,13,04,41,14.50
2007,07,13,04,42,14.50
2007,07,13,04,43,14.50
2007,07,13,04,44,14.40
2007,07,13,04,45,14.40
2007,07,13,04,46,14.40
2007,07,13,04,47,14.40
2007,07,13,04,48,14.40
2007,07,13,04,49,14.40
2007,07,13,04,50,14.50
2007,07,13,04,51,14.50
2007,07,13,04,52,14.50
2007,07,13,04,53,14.50
2007,07,13,04,54,14.60
2007,07,13,04,55,14.60
2007,07,13,04,56,14.60
2007,07,13,04,57,14.60
2007,07,13,04,58,14.60
2007,07,13,04,59,14.60
2007,07,13,05,00,14.50
2007,07,13,05,01,14.50
2007,07,13,05,02,14.40
2007,07,13,05,03,14.30
2007,07,13,05,04,14.20
2007,07,13,05,05,14.10
2007,07,13,05,06,14.00
2007,07,13,05,07,14.00
2007,07,13,05,08,13.90
2007,07,13,05,09,13.80
2007,07,13,05,10,13.80
2007,07,13,05,11,13.80
2007,07,13,05,12,13.80
2007,07,13,05,13,13.70
2007,07,13,05,14,13.70
2007,07,13,05,15,13.70
2007,07,13,05,16,13.70
2007,07,13,05,17,13.70
2007,07,13,05,18,13.70
2007,07,13,05,19,13.70
2007,07,13,05,20,13.60
2007,07,13,05,21,13.60
2007,07,13,05,22,13.60
2007,07,13,05,23,13.60
2007,07,13,05,24,13.60
2007,07,13,05,25,13.60
2007,07,13,05,26,13.70
2007,07,13,05,27,13.70
2007,07,13,05,28,13.70
2007,07,13,05,29,13.80
2007,07,13,05,30,13.80
2007,07,13,05,31,13.90
2007,07,13,05,32,14.00
2007,07,13,05,33,14.00
2007,07,13,05,34,14.10
2007,07,13,05,35,14.10
2007,07,13,05,36,14.20
2007,07,13,05,37,14.20
2007,07,13,05,38,14.20
2007,07,13,05,39,14.30
2007,07,13,05,40,14.30
2007,07,13,05,41,14.40
2007,07,13,05,42,14.40
2007,07,13,05,43,14.40
2007,07,13,05,44,14.50
2007,07,13,05,45,14.50
2007,07,13,05,46,14.60
2007,07,13,05,47,14.60
2007,07,13,05,48,14.60
2007,07,13,05,49,14.60
2007,07,13,05,50,14.60
2007,07,13,05,51,14.70
2007,07,13,05,52,14.70
2007,07,13,05,53,14.70
2007,07,13,05,54,14.70
2007,07,13,05,55,14.70
2007,07,13,05,56,14.70
2007,07,13,05,57,14.70
2007,07,13,05,58,14.70
2007,07,13,05,59,14.70
2007,07,13,06,00,14.70
2007,07,13,06,01,14.80
2007,07,13,06,02,14.80
2007,07,13,06,03,14.80
2007,07,13,06,04,14.80
2007,07,13,06,05,14.80
2007,07,13,06,06,14.90
2007,07,13,06,07,14.90
2007,07,13,06,08,14.90
2007,07,13,06,09,15.00
2007,07,13,06,10,15.00
2007,07,13,06,11,15.00
2007,07,13,06,12,15.00
2007,07,13,06,13,15.00
2007,07,13,06,14,15.00
2007,07,13,06,15,15.00
2007,07,13,06,16,15.00
2007,07,13,06,17,15.00
2007,07,13,06,18,15.00
2007,07,13,06,19,15.00
2007,07,13,06,20,15.00
2007,07,13,06,21,15.00
2007,07,13,06,22,15.00
2007,07,13,06,23,15.00
2007,07,13,06,24,15.00
2007,07,13,06,25,15.00
2007,07,13,06,26,15.00
2007,07,13,06,27,15.00
2007,07,13,06,28,15.00
2007,07,13,06,29,15.00
2007,07,13,06,30,15.00
2007,07,13,06,31,15.00
2007,07,13,06,32,15.00
2007,07,13,06,33,15.00
2007,07,13,06,34,15.00
2007,07,13,06,35,15.00
2007,07,13,06,36,15.00
2007,07,13,06,37,15.00
2007,07,13,06,38,15.00
2007,07,13,06,39,15.00
2007,07,13,06,40,15.00
2007,07,13,06,41,15.00
2007,07,13,06,42,15.00
2007,07,13,06,43,15.00
2007,07,13,06,44,15.00
2007,07,13,06,45,15.10
2007,07,13,06,46,15.20
2007,07,13,06,47,15.20
2007,07,13,06,48,15.20
2007,07,13,06,49,15.30
2007,07,13,06,50,15.30
2007,07,13,06,51,15.30
2007,07,13,06,52,15.40
2007,07,13,06,53,15.40
2007,07,13,06,54,15.40
2007,07,13,06,55,15.40
2007,07,13,06,56,15.40
2007,07,13,06,57,15.40
2007,07,13,06,58,15.50
2007,07,13,06,59,15.50
2007,07,13,07,00,15.50
2007,07,13,07,01,15.50
2007,07,13,07,02,15.60
2007,07,13,07,03,15.60
2007,07,13,07,04,15.60
2007,07,13,07,05,15.60
2007,07,13,07,06,15.70
2007,07,13,07,07,15.70
2007,07,13,07,08,15.70
2007,07,13,07,09,15.70
2007,07,13,07,10,15.70
2007,07,13,07,11,15.80
2007,07,13,07,12,15.80
2007,07,13,07,13,15.80
2007,07,13,07,14,15.90
2007,07,13,07,15,15.90
2007,07,13,07,16,15.90
2007,07,13,07,17,15.90
2007,07,13,07,18,15.90
2007,07,13,07,19,15.90
2007,07,13,07,20,16.00
2007,07,13,07,21,16.00
2007,07,13,07,22,16.10
2007,07,13,07,23,16.10
2007,07,13,07,24,16.10
2007,07,13,07,25,16.20
2007,07,13,07,26,16.20
2007,07,13,07,27,16.20
2007,07,13,07,28,16.30
2007,07,13,07,29,16.30
2007,07,13,07,30,16.30
2007,07,13,07,31,16.40
2007,07,13,07,32,16.40
2007,07,13,07,33,16.50
2007,07,13,07,34,16.50
2007,07,13,07,35,16.60
2007,07,13,07,36,16.60
2007,07,13,07,37,16.70
2007,07,13,07,38,16.70
2007,07,13,07,39,16.80
2007,07,13,07,40,16.80
2007,07,13,07,41,16.80
2007,07,13,07,42,16.80
2007,07,13,07,43,16.80
2007,07,13,07,44,16.80
2007,07,13,07,45,16.90
2007,07,13,07,46,16.90
2007,07,13,07,47,16.90
2007,07,13,07,48,16.90
2007,07,13,07,49,17.00
2007,07,13,07,50,17.00
2007,07,13,07,51,17.10
2007,07,13,07,52,17.10
2007,07,13,07,53,17.20
2007,07,13,07,54,17.20
2007,07,13,07,55,17.20
2007,07,13,07,56,17.30
2007,07,13,07,57,17.30
2007,07,13,07,58,17.30
2007,07,13,07,59,17.30
2007,07,13,08,00,17.30
2007,07,13,08,01,17.30
2007,07,13,08,02,17.30
2007,07,13,08,03,17.30
2007,07,13,08,04,17.30
2007,07,13,08,05,17.40
2007,07,13,08,06,17.40
2007,07,13,08,07,17.40
2007,07,13,08,08,17.40
2007,07,13,08,09,17.40
2007,07,13,08,10,17.60
2007,07,13,08,11,17.60
2007,07,13,08,12,17.60
2007,07,13,08,13,17.70
2007,07,13,08,14,17.70
2007,07,13,08,15,17.70
2007,07,13,08,16,17.80
2007,07,13,08,17,17.80
2007,07,13,08,18,17.80
2007,07,13,08,19,17.90
2007,07,13,08,20,17.90
2007,07,13,08,21,18.00
2007,07,13,08,22,18.00
2007,07,13,08,23,18.10
2007,07,13,08,24,18.10
2007,07,13,08,25,18.10
2007,07,13,08,26,18.10
2007,07,13,08,27,18.10
2007,07,13,08,28,18.20
2007,07,13,08,29,18.20
2007,07,13,08,30,18.20
2007,07,13,08,31,18.20
2007,07,13,08,32,18.20
2007,07,13,08,33,18.20
2007,07,13,08,34,18.10
2007,07,13,08,35,18.10
2007,07,13,08,36,18.10
2007,07,13,08,37,18.10
2007,07,13,08,38,18.00
2007,07,13,08,39,18.00
2007,07,13,08,40,18.10
2007,07,13,08,41,18.10
2007,07,13,08,42,18.20
2007,07,13,08,43,18.20
2007,07,13,08,44,18.20
2007,07,13,08,45,18.20
2007,07,13,08,46,18.20
2007,07,13,08,47,18.10
2007,07,13,08,48,18.10
2007,07,13,08,49,18.00
2007,07,13,08,50,18.00
2007,07,13,08,51,18.00
2007,07,13,08,52,17.90
2007,07,13,08,53,18.00
2007,07,13,08,54,18.00
2007,07,13,08,55,18.00
2007,07,13,08,56,18.10
2007,07,13,08,57,18.10
2007,07,13,08,58,18.10
2007,07,13,08,59,18.10
2007,07,13,09,00,18.10
2007,07,13,09,01,18.00
2007,07,13,09,02,18.00
2007,07,13,09,03,18.00
2007,07,13,09,04,18.00
2007,07,13,09,05,18.10
2007,07,13,09,06,18.10
2007,07,13,09,07,18.20
2007,07,13,09,08,18.20
2007,07,13,09,09,18.30
2007,07,13,09,10,18.30
2007,07,13,09,11,18.30
2007,07,13,09,12,18.30
2007,07,13,09,13,18.30
2007,07,13,09,14,18.20
2007,07,13,09,15,18.20
2007,07,13,09,16,18.30
2007,07,13,09,17,18.30
2007,07,13,09,18,18.30
2007,07,13,09,19,18.40
2007,07,13,09,20,18.50
2007,07,13,09,21,18.50
2007,07,13,09,22,18.60
2007,07,13,09,23,18.60
2007,07,13,09,24,18.60
2007,07,13,09,25,18.70
2007,07,13,09,26,18.70
2007,07,13,09,27,18.70
2007,07,13,09,28,18.70
2007,07,13,09,29,18.80
2007,07,13,09,30,18.80
2007,07,13,09,31,18.80
2007,07,13,09,32,18.80
2007,07,13,09,33,18.80
2007,07,13,09,34,18.80
2007,07,13,09,35,18.90
2007,07,13,09,36,18.90
2007,07,13,09,37,18.90
2007,07,13,09,38,19.00
2007,07,13,09,39,19.00
2007,07,13,09,40,19.10
2007,07,13,09,41,19.10
2007,07,13,09,42,19.10
2007,07,13,09,43,19.20
2007,07,13,09,44,19.20
2007,07,13,09,45,19.20
2007,07,13,09,46,19.30
2007,07,13,09,47,19.30
2007,07,13,09,48,19.30
2007,07,13,09,49,19.30
2007,07,13,09,50,19.30
2007,07,13,09,51,19.30
2007,07,13,09,52,19.30
2007,07,13,09,53,19.30
2007,07,13,09,54,19.30
2007,07,13,09,55,19.30
2007,07,13,09,56,19.30
2007,07,13,09,57,19.40
2007,07,13,09,58,19.40
2007,07,13,09,59,19.40
2007,07,13,10,00,19.40
2007,07,13,10,01,19.50
2007,07,13,10,02,19.50
2007,07,13,10,03,19.50
2007,07,13,10,04,19.60
2007,07,13,10,05,19.60
2007,07,13,10,06,19.70
2007,07,13,10,07,19.70
2007,07,13,10,08,19.70
2007,07,13,10,09,19.70
2007,07,13,10,10,19.70
2007,07,13,10,11,19.70
2007,07,13,10,12,19.70
2007,07,13,10,13,19.60
2007,07,13,10,14,19.60
2007,07,13,10,15,19.70
2007,07,13,10,16,19.70
2007,07,13,10,17,19.80
2007,07,13,10,18,19.80
2007,07,13,10,19,19.90
2007,07,13,10,20,20.00
2007,07,13,10,21,20.10
2007,07,13,10,22,20.20
2007,07,13,10,23,20.30
2007,07,13,10,24,20.40
2007,07,13,10,25,20.40
2007,07,13,10,26,20.40
2007,07,13,10,27,20.40
2007,07,13,10,28,20.30
2007,07,13,10,29,20.20
2007,07,13,10,30,20.20
2007,07,13,10,31,20.10
2007,07,13,10,32,20.00
2007,07,13,10,33,20.00
2007,07,13,10,34,20.00
2007,07,13,10,35,20.00
2007,07,13,10,36,20.00
2007,07,13,10,37,19.90
2007,07,13,10,38,19.90
2007,07,13,10,39,19.80
2007,07,13,10,40,19.70
2007,07,13,10,41,19.60
2007,07,13,10,42,19.50
2007,07,13,10,43,19.30
2007,07,13,10,44,19.20
2007,07,13,10,45,19.10
2007,07,13,10,46,19.00
2007,07,13,10,47,18.90
2007,07,13,10,48,18.80
2007,07,13,10,49,18.70
2007,07,13,10,50,18.60
2007,07,13,10,51,18.50
2007,07,13,10,52,18.40
2007,07,13,10,53,18.30
2007,07,13,10,54,18.20
2007,07,13,10,55,18.20
2007,07,13,10,56,18.30
2007,07,13,10,57,18.30
2007,07,13,10,58,18.40
2007,07,13,10,59,18.40
2007,07,13,11,00,18.40
2007,07,13,11,01,18.40
2007,07,13,11,02,18.40
2007,07,13,11,03,18.40
2007,07,13,11,04,18.40
2007,07,13,11,05,18.50
2007,07,13,11,06,18.50
2007,07,13,11,07,18.50
2007,07,13,11,08,18.50
2007,07,13,11,09,18.50
2007,07,13,11,10,18.50
2007,07,13,11,11,18.50
2007,07,13,11,12,18.50
2007,07,13,11,13,18.40
2007,07,13,11,14,18.40
2007,07,13,11,15,18.30
2007,07,13,11,16,18.20
2007,07,13,11,17,18.10
2007,07,13,11,18,17.90
2007,07,13,11,19,17.70
2007,07,13,11,20,17.60
2007,07,13,11,21,17.50
2007,07,13,11,22,17.40
2007,07,13,11,23,17.30
2007,07,13,11,24,17.20
2007,07,13,11,25,17.20
2007,07,13,11,26,17.20
2007,07,13,11,27,17.20
2007,07,13,11,28,17.20
2007,07,13,11,29,17.30
2007,07,13,11,30,17.30
2007,07,13,11,31,17.20
2007,07,13,11,32,17.20
2007,07,13,11,33,17.20
2007,07,13,11,34,17.20
2007,07,13,11,35,17.20
2007,07,13,11,36,17.30
2007,07,13,11,37,17.40
2007,07,13,11,38,17.40
2007,07,13,11,39,17.40
2007,07,13,11,40,17.50
2007,07,13,11,41,17.50
2007,07,13,11,42,17.50
2007,07,13,11,43,17.60
2007,07,13,11,44,17.70
2007,07,13,11,45,17.80
2007,07,13,11,46,17.80
2007,07,13,11,47,18.00
2007,07,13,11,48,18.10
2007,07,13,11,49,18.10
2007,07,13,11,50,18.20
2007,07,13,11,51,18.20
2007,07,13,11,52,18.30
2007,07,13,11,53,18.40
2007,07,13,11,54,18.50
2007,07,13,11,55,18.60
2007,07,13,11,56,18.60
2007,07,13,11,57,18.70
2007,07,13,11,58,18.70
2007,07,13,11,59,18.90
2007,07,13,12,00,18.90
2007,07,13,12,01,18.90
2007,07,13,12,02,18.90
2007,07,13,12,03,18.90
2007,07,13,12,04,19.00
2007,07,13,12,05,19.00
2007,07,13,12,06,19.00
2007,07,13,12,07,19.10
2007,07,13,12,08,19.20
2007,07,13,12,09,19.30
2007,07,13,12,10,19.40
2007,07,13,12,11,19.50
2007,07,13,12,12,19.50
2007,07,13,12,13,19.40
2007,07,13,12,14,19.30
2007,07,13,12,15,19.30
2007,07,13,12,16,19.40
2007,07,13,12,17,19.40
2007,07,13,12,18,19.60
2007,07,13,12,19,19.70
2007,07,13,12,20,19.80
2007,07,13,12,21,19.90
2007,07,13,12,22,19.90
2007,07,13,12,23,20.00
2007,07,13,12,24,19.80
2007,07,13,12,25,19.70
2007,07,13,12,26,19.60
2007,07,13,12,27,19.50
2007,07,13,12,28,19.40
2007,07,13,12,29,19.30
2007,07,13,12,30,19.40
2007,07,13,12,31,19.40
2007,07,13,12,32,19.50
2007,07,13,12,33,19.60
2007,07,13,12,34,19.60
2007,07,13,12,35,19.70
2007,07,13,12,36,19.80
2007,07,13,12,37,19.90
2007,07,13,12,38,19.90
2007,07,13,12,39,19.90
2007,07,13,12,40,19.80
2007,07,13,12,41,19.80
2007,07,13,12,42,19.60
2007,07,13,12,43,19.50
2007,07,13,12,44,19.50
2007,07,13,12,45,19.40
2007,07,13,12,46,19.40
2007,07,13,12,47,19.30
2007,07,13,12,48,19.30
2007,07,13,12,49,19.20
2007,07,13,12,50,19.20
2007,07,13,12,51,19.30
2007,07,13,12,52,19.30
2007,07,13,12,53,19.30
2007,07,13,12,54,19.50
2007,07,13,12,55,19.40
2007,07,13,12,56,19.30
2007,07,13,12,57,19.30
2007,07,13,12,58,19.30
2007,07,13,12,59,19.30
2007,07,13,13,00,19.40
2007,07,13,13,01,19.40
2007,07,13,13,02,19.40
2007,07,13,13,03,19.50
2007,07,13,13,04,19.50
2007,07,13,13,05,19.60
2007,07,13,13,06,19.60
2007,07,13,13,07,19.60
2007,07,13,13,08,19.60
2007,07,13,13,09,19.50
2007,07,13,13,10,19.40
2007,07,13,13,11,19.40
2007,07,13,13,12,19.40
2007,07,13,13,13,19.40
2007,07,13,13,14,19.40
2007,07,13,13,15,19.40
2007,07,13,13,16,19.30
2007,07,13,13,17,19.10
2007,07,13,13,18,18.90
2007,07,13,13,19,18.80
2007,07,13,13,20,18.80
2007,07,13,13,21,18.80
2007,07,13,13,22,18.80
2007,07,13,13,23,18.70
2007,07,13,13,24,18.50
2007,07,13,13,25,18.40
2007,07,13,13,26,18.30
2007,07,13,13,27,18.50
2007,07,13,13,28,18.60
2007,07,13,13,29,18.60
2007,07,13,13,30,18.50
2007,07,13,13,31,18.40
2007,07,13,13,32,18.40
2007,07,13,13,33,18.40
2007,07,13,13,34,18.50
2007,07,13,13,35,18.50
2007,07,13,13,36,18.40
2007,07,13,13,37,18.40
2007,07,13,13,38,18.40
2007,07,13,13,39,18.40
2007,07,13,13,40,18.40
2007,07,13,13,41,18.40
2007,07,13,13,42,18.40
2007,07,13,13,43,18.50
2007,07,13,13,44,18.50
2007,07,13,13,45,18.50
2007,07,13,13,46,18.50
2007,07,13,13,47,18.50
2007,07,13,13,48,18.60
2007,07,13,13,49,18.70
2007,07,13,13,50,18.90
2007,07,13,13,51,18.90
2007,07,13,13,52,18.80
2007,07,13,13,53,18.80
2007,07,13,13,54,18.80
2007,07,13,13,55,18.90
2007,07,13,13,56,19.10
2007,07,13,13,57,19.20
2007,07,13,13,58,19.40
2007,07,13,13,59,19.50
2007,07,13,14,00,19.60
2007,07,13,14,01,19.60
2007,07,13,14,02,19.40
2007,07,13,14,03,19.30
2007,07,13,14,04,19.10
2007,07,13,14,05,19.00
2007,07,13,14,06,18.90
2007,07,13,14,07,18.80
2007,07,13,14,08,18.80
2007,07,13,14,09,18.80
2007,07,13,14,10,18.70
2007,07,13,14,11,18.60
2007,07,13,14,12,18.40
2007,07,13,14,13,18.40
2007,07,13,14,14,18.40
2007,07,13,14,15,18.40
2007,07,13,14,16,18.40
2007,07,13,14,17,18.50
2007,07,13,14,18,18.60
2007,07,13,14,19,18.60
2007,07,13,14,20,18.80
2007,07,13,14,21,18.90
2007,07,13,14,22,19.10
2007,07,13,14,23,19.10
2007,07,13,14,24,19.20
2007,07,13,14,25,19.30
2007,07,13,14,26,19.30
2007,07,13,14,27,19.40
2007,07,13,14,28,19.40
2007,07,13,14,29,19.50
2007,07,13,14,30,19.50
2007,07,13,14,31,19.60
2007,07,13,14,32,19.80
2007,07,13,14,33,19.80
2007,07,13,14,34,19.80
2007,07,13,14,35,19.80
2007,07,13,14,36,19.80
2007,07,13,14,37,19.80
2007,07,13,14,38,19.80
2007,07,13,14,39,19.90
2007,07,13,14,40,19.90
2007,07,13,14,41,19.80
2007,07,13,14,42,19.70
2007,07,13,14,43,19.70
2007,07,13,14,44,19.80
2007,07,13,14,45,19.80
2007,07,13,14,46,19.70
2007,07,13,14,47,19.50
2007,07,13,14,48,19.30
2007,07,13,14,49,19.20
2007,07,13,14,50,19.10
2007,07,13,14,51,19.10
2007,07,13,14,52,19.10
2007,07,13,14,53,19.10
2007,07,13,14,54,19.00
2007,07,13,14,55,19.00
2007,07,13,14,56,19.00
2007,07,13,14,57,19.10
2007,07,13,14,58,19.10
2007,07,13,14,59,19.20
2007,07,13,15,00,19.30
2007,07,13,15,01,19.30
2007,07,13,15,02,19.30
2007,07,13,15,03,19.30
2007,07,13,15,04,19.30
2007,07,13,15,05,19.30
2007,07,13,15,06,19.30
2007,07,13,15,07,19.30
2007,07,13,15,08,19.40
2007,07,13,15,09,19.50
2007,07,13,15,10,19.70
2007,07,13,15,11,19.80
2007,07,13,15,12,19.90
2007,07,13,15,13,20.00
2007,07,13,15,14,20.10
2007,07,13,15,15,20.20
2007,07,13,15,16,20.30
2007,07,13,15,17,20.30
2007,07,13,15,18,20.30
2007,07,13,15,19,20.40
2007,07,13,15,20,20.40
2007,07,13,15,21,20.60
2007,07,13,15,22,20.60
2007,07,13,15,23,20.70
2007,07,13,15,24,20.80
2007,07,13,15,25,21.00
2007,07,13,15,26,21.20
2007,07,13,15,27,21.30
2007,07,13,15,28,21.40
2007,07,13,15,29,21.60
2007,07,13,15,30,21.70
2007,07,13,15,31,21.70
2007,07,13,15,32,21.70
2007,07,13,15,33,21.70
2007,07,13,15,34,21.70
2007,07,13,15,35,21.70
2007,07,13,15,36,21.70
2007,07,13,15,37,21.60
2007,07,13,15,38,21.50
2007,07,13,15,39,21.40
2007,07,13,15,40,21.40
2007,07,13,15,41,21.40
2007,07,13,15,42,21.40
2007,07,13,15,43,21.40
2007,07,13,15,44,21.40
2007,07,13,15,45,21.40
2007,07,13,15,46,21.40
2007,07,13,15,47,21.40
2007,07,13,15,48,21.30
2007,07,13,15,49,21.30
2007,07,13,15,50,21.30
2007,07,13,15,51,21.40
2007,07,13,15,52,21.50
2007,07,13,15,53,21.50
2007,07,13,15,54,21.60
2007,07,13,15,55,21.60
2007,07,13,15,56,21.60
2007,07,13,15,57,21.50
2007,07,13,15,58,21.50
2007,07,13,15,59,21.50
2007,07,13,16,00,21.60
2007,07,13,16,01,21.70
2007,07,13,16,02,21.70
2007,07,13,16,03,21.70
2007,07,13,16,04,21.60
2007,07,13,16,05,21.50
2007,07,13,16,06,21.40
2007,07,13,16,07,21.40
2007,07,13,16,08,21.40
2007,07,13,16,09,21.40
2007,07,13,16,10,21.40
2007,07,13,16,11,21.40
2007,07,13,16,12,21.50
2007,07,13,16,13,21.60
2007,07,13,16,14,21.70
2007,07,13,16,15,21.80
2007,07,13,16,16,21.90
2007,07,13,16,17,21.90
2007,07,13,16,18,22.00
2007,07,13,16,19,22.00
2007,07,13,16,20,22.10
2007,07,13,16,21,22.10
2007,07,13,16,22,22.20
2007,07,13,16,23,22.20
2007,07,13,16,24,22.20
2007,07,13,16,25,22.20
2007,07,13,16,26,22.30
2007,07,13,16,27,22.30
2007,07,13,16,28,22.40
2007,07,13,16,29,22.50
2007,07,13,16,30,22.50
2007,07,13,16,31,22.60
2007,07,13,16,32,22.60
2007,07,13,16,33,22.60
2007,07,13,16,34,22.50
2007,07,13,16,35,22.50
2007,07,13,16,36,22.60
2007,07,13,16,37,22.60
2007,07,13,16,38,22.60
2007,07,13,16,39,22.60
2007,07,13,16,40,22.50
2007,07,13,16,41,22.50
2007,07,13,16,42,22.40
2007,07,13,16,43,22.40
2007,07,13,16,44,22.40
2007,07,13,16,45,22.40
2007,07,13,16,46,22.50
2007,07,13,16,47,22.50
2007,07,13,16,48,22.60
2007,07,13,16,49,22.60
2007,07,13,16,50,22.70
2007,07,13,16,51,22.70
2007,07,13,16,52,22.70
2007,07,13,16,53,22.80
2007,07,13,16,54,22.80
2007,07,13,16,55,22.80
2007,07,13,16,56,22.80
2007,07,13,16,57,22.80
2007,07,13,16,58,22.80
2007,07,13,16,59,22.70
2007,07,13,17,00,22.70
2007,07,13,17,01,22.60
2007,07,13,17,02,22.50
2007,07,13,17,03,22.50
2007,07,13,17,04,22.50
2007,07,13,17,05,22.50
2007,07,13,17,06,22.60
2007,07,13,17,07,22.50
2007,07,13,17,08,22.50
2007,07,13,17,09,22.40
2007,07,13,17,10,22.40
2007,07,13,17,11,22.40
2007,07,13,17,12,22.40
2007,07,13,17,13,22.50
2007,07,13,17,14,22.50
2007,07,13,17,15,22.60
2007,07,13,17,16,22.60
2007,07,13,17,17,22.70
2007,07,13,17,18,22.70
2007,07,13,17,19,22.70